DW7076 Floda SE current weather conditions

sailwx.info

Wind from 137

Air temperature 2.8° C
Dewpoint 0.3° C

Last reported at 2015-Apr-21 01:46 UTC.
Time now 2015-Apr-21 03:00 UTC

Location: N 57°49' E 012°21'.
View on Google Maps.

See reports from other nearby stations

  
Tides and Currents Weather Stations Pressure Air Temp Water Temp Dewpoint Dewpoint Depression Visibility Wind Speed Wind Dir Waves Ship Positions
date/time (UTC)wind fromknots sea level pressurealtimeterstation pressurevisibilityair tempwater tempwave heightnotes
2015-Apr-21 01:46 137 2.8
2015-Apr-21 01:36 137 2.8
2015-Apr-21 01:26 137 3.3
2015-Apr-21 01:16 137 3.3
2015-Apr-21 01:06 137 3.3
2015-Apr-21 00:56 137 3.9
2015-Apr-21 00:46 137 3.9
2015-Apr-21 00:36 137 3.9
2015-Apr-21 00:26 137 3.9
2015-Apr-21 00:16 137 4.4
2015-Apr-21 00:06 137 4.4
2015-Apr-20 23:56 137 4.4
2015-Apr-20 23:46 137 4.4
2015-Apr-20 23:36 137 4.4
2015-Apr-20 23:26 137 0 gusting 2 5.0
2015-Apr-20 23:16 137 5.0
2015-Apr-20 23:06 137 5.0
2015-Apr-20 22:56 137 5.6
2015-Apr-20 22:46 137 5.6
2015-Apr-20 22:36 137 5.6
2015-Apr-20 22:26 137 0 gusting 2 6.1
2015-Apr-20 22:16 137 6.1
2015-Apr-20 22:06 137 6.1
2015-Apr-20 21:56 137 6.7
2015-Apr-20 21:46 137 6.7
2015-Apr-20 21:36 136 7.2
2015-Apr-20 21:26 136 7.2
2015-Apr-20 21:16 136 0 gusting 1 7.2
2015-Apr-20 21:06 136 7.8
2015-Apr-20 20:56 231 8.3
2015-Apr-20 20:46 231 0 gusting 2 8.3
2015-Apr-20 20:36 231 0 gusting 1 8.9
2015-Apr-20 20:26 231 0 gusting 2 9.4
2015-Apr-20 20:16 168 10.0
2015-Apr-20 20:06 281 0 gusting 5 10.0
2015-Apr-20 19:56 152 1 gusting 6 10.0
2015-Apr-20 19:46 163 0 gusting 4 10.6
2015-Apr-20 19:36 221 0 gusting 6 10.6
2015-Apr-20 19:26 197 11.1
2015-Apr-20 19:16 182 0 gusting 4 11.1
2015-Apr-20 19:06 183 0 gusting 2 11.7
2015-Apr-20 18:56 180 0 gusting 4 11.7
2015-Apr-20 18:46 188 12.2
2015-Apr-20 18:36 183 12.2
2015-Apr-20 18:26 184 12.8
2015-Apr-20 18:16 184 13.3
2015-Apr-20 18:06 184 0 gusting 1 13.9
2015-Apr-20 17:56 184 13.9
2015-Apr-20 17:46 293 14.4
2015-Apr-20 17:36 293 0 gusting 2 14.4
2015-Apr-20 17:26 344 0 gusting 5 15.0
2015-Apr-20 17:16 242 15.0
2015-Apr-20 17:06 295 1 gusting 10 15.6
2015-Apr-20 16:56 265 2 gusting 7 16.1
2015-Apr-20 16:46 303 5 gusting 10 16.7
2015-Apr-20 16:36 316 5 gusting 10 17.2
2015-Apr-20 16:26 320 3 gusting 10 17.8
2015-Apr-20 16:16 282 1 gusting 6 17.8
2015-Apr-20 16:06 299 2 gusting 10 18.3
2015-Apr-20 15:56 300 3 gusting 8 18.3
2015-Apr-20 15:46 298 5 gusting 8 18.3
2015-Apr-20 15:36 282 3 gusting 7 18.3
2015-Apr-20 15:26 299 1 gusting 10 17.8
2015-Apr-20 15:16 320 5 gusting 10 18.3
2015-Apr-20 15:06 294 2 gusting 6 18.3
2015-Apr-20 14:56 316 5 gusting 12 18.9
2015-Apr-20 14:46 311 5 gusting 13 19.4
2015-Apr-20 14:36 313 5 gusting 12 19.4
2015-Apr-20 14:26 325 4 gusting 10 20.0
2015-Apr-20 14:16 339 1 gusting 7 20.0
2015-Apr-20 14:06 030 20.0
2015-Apr-20 13:56 310 1 gusting 5 20.0
2015-Apr-20 13:46 310 0 gusting 4 20.0
2015-Apr-20 13:36 061 0 gusting 2 20.0
2015-Apr-20 13:26 036 0 gusting 6 19.4
2015-Apr-20 13:16 057 0 gusting 7 18.9
2015-Apr-20 13:06 317 2 gusting 5 18.9
2015-Apr-20 12:56 058 2 gusting 7 18.9
2015-Apr-20 12:46 321 4 gusting 7 18.9
2015-Apr-20 12:36 060 0 gusting 5 18.9
2015-Apr-20 12:26 054 2 gusting 6 18.3
2015-Apr-20 12:16 038 2 gusting 6 18.9
2015-Apr-20 12:06 055 1 gusting 5 18.3
2015-Apr-20 11:56 014 0 gusting 5 18.3
2015-Apr-20 11:46 313 1 gusting 6 17.8
2015-Apr-20 11:36 069 2 gusting 5 17.8
2015-Apr-20 11:26 054 2 gusting 6 17.8
2015-Apr-20 11:16 016 1 gusting 8 17.8
2015-Apr-20 11:06 350 1 gusting 10 18.3
2015-Apr-20 10:56 061 2 gusting 7 18.3
2015-Apr-20 10:46 352 1 gusting 6 17.8
2015-Apr-20 10:36 065 1 gusting 6 17.2
2015-Apr-20 10:26 017 1 gusting 7 17.2
2015-Apr-20 10:16 074 2 gusting 6 17.2
2015-Apr-20 10:06 047 1 gusting 7 16.7
2015-Apr-20 09:56 055 4 gusting 10 16.7
2015-Apr-20 09:46 005 2 gusting 7 16.1
2015-Apr-20 09:36 058 1 gusting 7 16.1
2015-Apr-20 09:26 048 2 gusting 8 15.6
2015-Apr-20 09:16 353 2 gusting 7 15.6
2015-Apr-20 09:06 326 1 gusting 11 15.0
2015-Apr-20 08:56 076 2 gusting 8 15.0
2015-Apr-20 08:46 346 1 gusting 1 13.9
2015-Apr-20 08:36 346 1 gusting 8 13.9
2015-Apr-20 08:26 049 1 gusting 6 13.9
2015-Apr-20 08:16 343 0 gusting 6 13.9
2015-Apr-20 08:06 063 1 gusting 6 13.3
2015-Apr-20 07:56 078 1 gusting 7 12.8
2015-Apr-20 07:46 058 2 gusting 6 12.8
2015-Apr-20 07:36 060 3 gusting 6 12.2
2015-Apr-20 07:26 033 2 gusting 6 12.2
2015-Apr-20 07:16 060 3 gusting 7 11.7
2015-Apr-20 07:06 025 1 gusting 4 11.7
2015-Apr-20 06:56 014 1 gusting 4 11.1
2015-Apr-20 06:46 058 0 gusting 4 10.6
2015-Apr-20 06:36 342 1 gusting 4 10.0
2015-Apr-20 06:26 026 1 gusting 2 9.4
2015-Apr-20 06:16 355 0 gusting 4 8.9
2015-Apr-20 06:06 340 2 gusting 7 7.8
2015-Apr-20 05:56 325 1 gusting 2 5.6
2015-Apr-20 05:46 323 0 gusting 2 4.4
2015-Apr-20 05:36 314 3.3
2015-Apr-20 05:26 314 2.8
2015-Apr-20 05:16 314 2.8
2015-Apr-20 05:06 314 2.8
2015-Apr-20 04:56 314 2.8
2015-Apr-20 04:46 314 2.2
2015-Apr-20 04:36 314 2.2
2015-Apr-20 04:26 314 2.2
2015-Apr-20 04:16 314 2.2
2015-Apr-20 04:06 314 2.2
2015-Apr-20 03:56 314 2.2
2015-Apr-20 03:46 314 2.8
2015-Apr-20 03:36 314 2.8
2015-Apr-20 03:26 314 2.8
2015-Apr-20 03:16 314 3.3
2015-Apr-20 03:06 314 3.3
2015-Apr-20 02:56 314 3.9
2015-Apr-20 02:46 314 3.9
2015-Apr-20 02:36 314 4.4
2015-Apr-20 02:26 314 0 gusting 1 4.4
2015-Apr-20 02:16 314 4.4
2015-Apr-20 02:06 314 4.4
2015-Apr-20 01:56 314 4.4
2015-Apr-20 01:46 314 4.4
2015-Apr-20 01:36 314 3.9
2015-Apr-20 01:26 314 0 gusting 2 3.9
2015-Apr-20 01:16 314 3.9
2015-Apr-20 01:06 314 3.3
2015-Apr-20 00:56 314 3.3
2015-Apr-20 00:46 314 0 gusting 2 3.3
2015-Apr-20 00:36 314 3.3
2015-Apr-20 00:26 314 3.9
2015-Apr-20 00:16 314 3.9
2015-Apr-20 00:06 314 3.9
2015-Apr-19 23:56 314 0 gusting 2 4.4
2015-Apr-19 23:46 314 4.4
2015-Apr-19 23:36 314 4.4
2015-Apr-19 23:26 314 5.0
2015-Apr-19 23:16 314 5.6
2015-Apr-19 23:06 314 5.6
2015-Apr-19 22:56 314 0 gusting 1 6.1
2015-Apr-19 22:46 314 6.1
2015-Apr-19 22:36 314 0 gusting 2 6.7
2015-Apr-19 22:26 059 6.7
2015-Apr-19 22:16 323 1 gusting 4 7.2
2015-Apr-19 22:06 322 7.2
2015-Apr-19 21:56 322 7.2
2015-Apr-19 21:46 306 1 gusting 4 7.8
2015-Apr-19 21:36 329 1 gusting 7 7.8
2015-Apr-19 21:26 326 2 gusting 6 7.8
2015-Apr-19 21:16 322 1 gusting 6 7.8
2015-Apr-19 21:06 020 0 gusting 4 7.8
2015-Apr-19 20:56 321 2 gusting 6 7.8
2015-Apr-19 20:46 314 1 gusting 4 7.8
2015-Apr-19 20:36 317 1 gusting 5 8.3
2015-Apr-19 20:26 306 0 gusting 7 8.3
2015-Apr-19 20:16 302 1 gusting 5 8.3
2015-Apr-19 20:06 312 2 gusting 4 8.3
2015-Apr-19 19:56 309 1 gusting 5 8.9
2015-Apr-19 19:46 296 1 gusting 6 8.9
2015-Apr-19 19:36 286 2 gusting 7 9.4
2015-Apr-19 19:26 309 2 gusting 5 9.4
2015-Apr-19 19:16 281 2 gusting 6 10.0
2015-Apr-19 19:06 305 0 gusting 2 10.0
2015-Apr-19 18:56 288 1 gusting 6 10.6
2015-Apr-19 18:46 277 10.6
2015-Apr-19 18:36 263 0 gusting 5 11.1
2015-Apr-19 18:26 282 0 gusting 2 11.1
2015-Apr-19 18:16 311 11.7
2015-Apr-19 18:06 337 0 gusting 6 11.7
2015-Apr-19 17:56 302 1 gusting 4 12.2
2015-Apr-19 17:46 284 1 gusting 6 12.2
2015-Apr-19 17:36 296 1 gusting 7 12.2
2015-Apr-19 17:26 245 2 gusting 8 12.8
2015-Apr-19 17:16 314 3 gusting 7 12.8
2015-Apr-19 17:06 317 1 gusting 6 12.8
2015-Apr-19 16:56 344 1 gusting 6 13.3
2015-Apr-19 16:46 330 4 gusting 10 13.3
2015-Apr-19 16:36 317 2 gusting 10 13.3
2015-Apr-19 16:26 323 4 gusting 8 13.9
2015-Apr-19 16:16 325 5 gusting 10 13.9
2015-Apr-19 16:06 322 2 gusting 10 13.9
2015-Apr-19 15:56 284 2 gusting 10 14.4
2015-Apr-19 15:46 323 6 gusting 11 15.0
2015-Apr-19 15:36 291 2 gusting 10 15.0
2015-Apr-19 15:26 334 5 gusting 11 15.0
2015-Apr-19 15:16 335 4 gusting 10 15.0
2015-Apr-19 15:06 326 3 gusting 10 14.4
2015-Apr-19 14:56 216 4 gusting 12 14.4
2015-Apr-19 14:46 194 1 gusting 10 15.6
2015-Apr-19 14:36 299 4 gusting 13 15.6
2015-Apr-19 14:26 335 5 gusting 11 15.6
2015-Apr-19 14:16 316 5 gusting 10 15.0
2015-Apr-19 14:06 285 5 gusting 11 15.6
2015-Apr-19 13:56 309 1 gusting 10 16.1
2015-Apr-19 13:46 329 3 gusting 10 16.1
2015-Apr-19 13:36 329 1 gusting 7 16.1
2015-Apr-19 13:26 017 1 gusting 8 15.6
2015-Apr-19 13:16 043 1 gusting 6 15.6
2015-Apr-19 13:06 275 4 gusting 8 15.0
2015-Apr-19 12:56 319 3 gusting 7 15.6
2015-Apr-19 12:46 029 0 gusting 4 15.0
2015-Apr-19 12:36 15.0
2015-Apr-19 12:26 057 1 gusting 2 14.4
2015-Apr-19 12:16 072 1 gusting 7 13.9
2015-Apr-19 12:06 071 3 gusting 8 13.9
2015-Apr-19 11:56 073 4 gusting 7 14.4
2015-Apr-19 11:46 052 1 gusting 10 14.4
2015-Apr-19 11:36 043 4 gusting 13 14.4
2015-Apr-19 11:26 072 5 gusting 10 13.9
2015-Apr-19 11:16 351 4 gusting 10 14.4
2015-Apr-19 11:06 336 4 gusting 8 13.9
2015-Apr-19 10:56 051 2 gusting 8 13.9
2015-Apr-19 10:46 319 3 gusting 10 12.8
2015-Apr-19 10:36 302 1 gusting 4 12.2
2015-Apr-19 10:26 066 4 gusting 10 12.2
2015-Apr-19 10:16 080 1 gusting 6 12.2
2015-Apr-19 10:06 337 4 gusting 7 12.2
2015-Apr-19 09:56 305 2 gusting 6 12.2
2015-Apr-19 09:46 335 2 gusting 8 12.2
2015-Apr-19 09:36 032 2 gusting 5 11.7
2015-Apr-19 09:26 056 2 gusting 6 12.2
2015-Apr-19 09:16 072 4 gusting 8 11.1
2015-Apr-19 09:06 070 5 gusting 7 11.1
2015-Apr-19 08:56 352 2 gusting 7 10.6
2015-Apr-19 08:46 070 2 gusting 7 11.1
2015-Apr-19 08:36 073 5 gusting 8 10.0
2015-Apr-19 08:26 069 3 gusting 6 10.0
2015-Apr-19 08:16 346 1 gusting 5 10.0
2015-Apr-19 08:06 051 2 gusting 6 10.0
2015-Apr-19 07:56 070 4 gusting 8 9.4
2015-Apr-19 07:46 065 1 gusting 5 8.9
2015-Apr-19 07:36 333 0 gusting 6 8.9
2015-Apr-19 07:26 333 4 gusting 10 8.3
2015-Apr-19 07:16 031 1 gusting 4 8.3
2015-Apr-19 07:06 058 2 gusting 6 8.3
2015-Apr-19 06:56 033 1 gusting 2 7.8
2015-Apr-19 06:46 013 1 gusting 4 7.8
2015-Apr-19 06:36 321 2 gusting 6 7.8
2015-Apr-19 06:26 077 1 gusting 4 7.2
2015-Apr-19 06:16 047 1 gusting 2 6.7
2015-Apr-19 06:06 040 2 gusting 6 6.1
2015-Apr-19 05:56 065 1 gusting 4 5.6
2015-Apr-19 05:46 063 1 gusting 4 5.0
2015-Apr-19 05:36 041 0 gusting 2 4.4
2015-Apr-19 05:26 040 3.9
2015-Apr-19 05:16 040 3.9
2015-Apr-19 05:06 040 3.9
2015-Apr-19 04:56 040 3.9
2015-Apr-19 04:46 040 3.9
2015-Apr-19 04:36 040 3.9
2015-Apr-19 04:26 040 3.9
2015-Apr-19 04:16 040 4.4
2015-Apr-19 04:06 040 4.4
2015-Apr-19 03:56 040 5.0
2015-Apr-19 03:46 040 5.0
2015-Apr-19 03:36 040 0 gusting 1 5.6
2015-Apr-19 03:26 040 5.6
2015-Apr-19 03:16 040 6.1
2015-Apr-19 03:06 048 6.1